H1 CPF 1 NER 2013 3 9 9 5681 glonass114 H2 0806703 9114 33468 2013 3 9 0 0 0 2013 3 12 23 45 0 900 1 1 0 0 0 H9 10 0 56360 0.00000 0 7852542.878 24197918.746 1731169.088 10 0 56360 900.00000 0 7806126.400 23775769.723 4895478.460 10 0 56360 1800.00000 0 7563331.749 23011915.918 7964578.788 10 0 56360 2700.00000 0 7085555.595 21946308.448 10878785.485 10 0 56360 3600.00000 0 6343609.531 20627944.331 13581436.024 10 0 56360 4500.00000 0 5319212.796 19112783.376 16019995.699 10 0 56360 5400.00000 0 4006027.016 17461392.773 18147081.175 10 0 56360 6300.00000 0 2410188.121 15736418.912 19921381.731 10 0 56360 7200.00000 0 550312.199 13999993.040 21308460.305 10 0 56360 8100.00000 0 -1543025.851 12311179.811 22281419.115 10 0 56360 9000.00000 0 -3828319.850 10723575.504 22821417.432 10 0 56360 9900.00000 0 -6254623.748 9283156.183 22918032.018 10 0 56360 10800.00000 0 -8763445.377 8026465.110 22569453.878 10 0 56360 11700.00000 0 -11290964.318 6979214.294 21782518.043 10 0 56360 12600.00000 0 -13770482.080 6155357.597 20572566.258 10 0 56360 13500.00000 0 -16135003.329 5556672.886 18963145.514 10 0 56360 14400.00000 0 -18319841.400 5172869.429 16985548.365 10 0 56360 15300.00000 0 -20265140.254 4982214.783 14678203.928 10 0 56360 16200.00000 0 -21918208.493 4952653.680 12085931.269 10 0 56360 17100.00000 0 -23235568.815 5043370.801 9259069.394 10 0 56360 18000.00000 0 -24184637.934 5206730.837 6252500.627 10 0 56360 18900.00000 0 -24744967.450 5390513.308 3124586.160 10 0 56360 19800.00000 0 -24908994.343 5540347.288 -63965.695 10 0 56360 20700.00000 0 -24682270.196 5602242.762 -3251276.490 10 0 56360 21600.00000 0 -24083160.086 5525111.254 -6375497.009 10 0 56360 22500.00000 0 -23142024.170 5263168.825 -9376005.718 10 0 56360 23400.00000 0 -21899916.661 4778119.516 -12194582.892 10 0 56360 24300.00000 0 -20406856.983 4041026.541 -14776537.732 10 0 56360 25200.00000 0 -18719745.655 3033791.644 -17071766.757 10 0 56360 26100.00000 0 -16900012.201 1750179.512 -19035723.124 10 0 56360 27000.00000 0 -15011093.346 196343.149 -20630278.446 10 0 56360 27900.00000 0 -13115846.628 -1609173.099 -21824460.837 10 0 56360 28800.00000 0 -11274007.085 -3635954.357 -22595055.206 10 0 56360 29700.00000 0 -9539792.703 -5842739.619 -22927054.516 10 0 56360 30600.00000 0 -7959757.956 -8178908.614 -22813953.445 10 0 56360 31500.00000 0 -6570984.488 -10586370.600 -22257878.717 10 0 56360 32400.00000 0 -5399683.867 -13001777.947 -21269553.356 10 0 56360 33300.00000 0 -4460270.206 -15358973.591 -19868095.094 10 0 56360 34200.00000 0 -3754941.006 -17591571.433 -18080652.208 10 0 56360 35100.00000 0 -3273783.275 -19635562.942 -15941883.132 10 0 56360 36000.00000 0 -2995400.046 -21431841.751 -13493289.127 10 0 56360 36900.00000 0 -2888030.569 -22928540.953 -10782412.328 10 0 56360 37800.00000 0 -2911116.528 -24083085.354 -7861914.228 10 0 56360 38700.00000 0 -3017247.672 -24863872.562 -4788552.159 10 0 56360 39600.00000 0 -3154404.045 -25251512.049 -1622073.769 10 0 56360 40500.00000 0 -3268399.191 -25239569.932 1575948.749 10 0 56360 41400.00000 0 -3305419.982 -24834787.932 4743321.496 10 0 56360 42300.00000 0 -3214554.484 -24056767.228 7818444.567 10 0 56360 43200.00000 0 -2950199.695 -22937130.608 10741516.182 10 0 56360 44100.00000 0 -2474246.034 -21518198.449 13455701.085 10 0 56360 45000.00000 0 -1757945.078 -19851234.592 15908239.719 10 0 56360 45900.00000 0 -783380.516 -17994336.350 18051476.223 10 0 56360 46800.00000 0 455520.780 -16010057.645 19843785.049 10 0 56360 47700.00000 0 1952481.049 -13962865.405 21250378.210 10 0 56360 48600.00000 0 3688889.500 -11916535.932 22243977.808 10 0 56360 49500.00000 0 5634345.802 -9931600.130 22805341.270 10 0 56360 50400.00000 0 7747707.108 -8062944.096 22923629.659 10 0 56360 51300.00000 0 9978595.521 -6357664.660 22596612.531 10 0 56360 52200.00000 0 12269303.737 -4853268.467 21830705.943 10 0 56360 53100.00000 0 14557019.922 -3576288.707 20640843.265 10 0 56360 54000.00000 0 16776279.716 -2541375.889 19050181.631 10 0 56360 54900.00000 0 18861543.749 -1750899.208 17089649.784 10 0 56360 55800.00000 0 20749793.743 -1195073.748 14797346.111 10 0 56360 56700.00000 0 22383039.463 -852606.721 12217798.380 10 0 56360 57600.00000 0 23710632.407 -691834.277 9401099.347 10 0 56360 58500.00000 0 24691289.984 -672299.948 6401934.864 10 0 56360 59400.00000 0 25294745.972 -746707.232 3278523.198 10 0 56360 60300.00000 0 25502958.580 -863163.167 91486.021 10 0 56360 61200.00000 0 25310825.790 -967617.565 -3097326.916 10 0 56360 62100.00000 0 24726378.317 -1006394.316 -6226036.621 10 0 56360 63000.00000 0 23770442.277 -928707.361 -9233933.908 10 0 56360 63900.00000 0 22475785.884 -689054.629 -12062655.244 10 0 56360 64800.00000 0 20885785.949 -249388.372 -14657312.688 10 0 56360 65700.00000 0 19052669.976 419030.204 -16967556.138 10 0 56360 66600.00000 0 17035407.282 1334170.833 -18948547.451 10 0 56360 67500.00000 0 14897336.987 2502230.901 -20561827.935 10 0 56360 68400.00000 0 12703631.521 3917132.174 -21776062.780 10 0 56360 69300.00000 0 10518701.007 5560539.827 -22567648.350 10 0 56360 70200.00000 0 8403646.102 7402404.385 -22921170.920 10 0 56360 71100.00000 0 6413864.762 9402005.401 -22829708.127 10 0 56360 72000.00000 0 4596911.962 11509454.757 -22294967.298 10 0 56360 72900.00000 0 2990700.865 13667598.344 -21327257.757 10 0 56360 73800.00000 0 1622119.695 15814238.143 -19945297.171 10 0 56360 74700.00000 0 506121.478 17884583.092 -18175855.125 10 0 56360 75600.00000 0 -354675.977 19813827.341 -16053240.071 10 0 56360 76500.00000 0 -969863.701 21539748.770 -13618638.821 10 0 56360 77400.00000 0 -1360594.658 23005219.314 -10919320.778 10 0 56360 78300.00000 0 -1558444.141 24160522.007 -8007721.790 10 0 56360 79200.00000 0 -1603826.139 24965377.317 -4940425.138 10 0 56360 80100.00000 0 -1544033.225 25390593.290 -1777059.502 10 0 56360 81000.00000 0 -1430983.674 25419269.673 1420864.387 10 0 56360 81900.00000 0 -1318772.047 25047504.904 4591155.316 10 0 56360 82800.00000 0 -1261128.003 24284575.816 7672157.161 10 0 56360 83700.00000 0 -1308892.020 23152582.284 10603954.105 10 0 56360 84600.00000 0 -1507616.087 21685571.662 13329541.247 10 0 56360 85500.00000 0 -1895391.941 19928179.944 15795937.126 10 0 56361 0.00000 0 -2500999.682 17933846.969 17955216.056 10 0 56361 900.00000 0 -3342456.299 15762680.633 19765440.224 10 0 56361 1800.00000 0 -4426024.956 13479060.229 21191472.874 10 0 56361 2700.00000 0 -5745729.461 11149079.038 22205657.808 10 0 56361 3600.00000 0 -7283393.021 8837932.985 22788352.038 10 0 56361 4500.00000 0 -9009201.552 6607364.347 22928301.875 10 0 56361 5400.00000 0 -10882767.966 4513266.372 22622855.884 10 0 56361 6300.00000 0 -12854653.658 2603547.869 21878011.031 10 0 56361 7200.00000 0 -14868284.045 916345.742 20708291.633 10 0 56361 8100.00000 0 -16862178.696 -521341.384 19136463.701 10 0 56361 9000.00000 0 -18772403.461 -1694542.905 17193090.362 10 0 56361 9900.00000 0 -20535142.602 -2600693.724 14915936.958 10 0 56361 10800.00000 0 -22089283.950 -3249485.268 12349237.246 10 0 56361 11700.00000 0 -23378909.421 -3662197.857 9542834.702 10 0 56361 12600.00000 0 -24355586.983 -3870543.776 6551215.472 10 0 56361 13500.00000 0 -24980368.408 -3915070.988 3432451.564 10 0 56361 14400.00000 0 -25225409.320 -3843195.764 247074.674 10 0 56361 15300.00000 0 -25075143.705 -3706948.016 -2943097.421 10 0 56361 16200.00000 0 -24526963.714 -3560525.233 -6076159.108 10 0 56361 17100.00000 0 -23591376.222 -3457758.853 -9091316.552 10 0 56361 18000.00000 0 -22291629.492 -3449600.534 -11930065.232 10 0 56361 18900.00000 0 -20662825.418 -3581734.893 -14537322.654 10 0 56361 19800.00000 0 -18750554.239 -3892419.911 -16862494.392 10 0 56361 20700.00000 0 -16609108.524 -4410646.494 -18860452.949 10 0 56361 21600.00000 0 -14299350.572 -5154695.343 -20492410.828 10 0 56361 22500.00000 0 -11886321.649 -6131152.598 -21726671.301 10 0 56361 23400.00000 0 -9436692.111 -7334426.501 -22539242.660 10 0 56361 24300.00000 0 -7016157.884 -8746786.485 -22914304.400 10 0 56361 25200.00000 0 -4686890.814 -10338924.337 -22844516.513 10 0 56361 26100.00000 0 -2505148.246 -12071015.270 -22331165.851 10 0 56361 27000.00000 0 -519140.459 -13894235.932 -21384146.547 10 0 56361 27900.00000 0 1232756.085 -15752677.241 -20021774.398 10 0 56361 28800.00000 0 2723365.866 -17585573.207 -18270438.226 10 0 56361 29700.00000 0 3937605.534 -19329753.488 -16164094.244 10 0 56361 30600.00000 0 4872862.655 -20922217.735 -13743612.425 10 0 56361 31500.00000 0 5538846.741 -22302724.167 -11055986.959 10 0 56361 32400.00000 0 5956919.542 -23416283.894 -8153425.542 10 0 56361 33300.00000 0 6158933.502 -24215456.006 -5092334.878 10 0 56361 34200.00000 0 6185628.091 -24662346.454 -1932222.189 10 0 56361 35100.00000 0 6084652.622 -24730226.049 1265465.718 10 0 56361 36000.00000 0 5908300.094 -24404698.760 4438542.691 10 0 56361 36900.00000 0 5711048.961 -23684370.475 7525298.700 10 0 56361 37800.00000 0 5547018.001 -22580989.528 10465706.071 10 0 56361 38700.00000 0 5467443.109 -21119052.651 13202592.310 10 0 56361 39600.00000 0 5518283.852 -19334892.711 15682755.922 10 0 56361 40500.00000 0 5738061.969 -17275286.464 17858003.109 10 0 56361 41400.00000 0 6156024.012 -14995640.695 19686085.004 10 0 56361 42300.00000 0 6790706.365 -12557832.850 21131517.172 10 0 56361 43200.00000 0 7648963.710 -10027796.423 22166265.817 10 0 56361 44100.00000 0 8725502.364 -7472951.823 22770287.815 10 0 56361 45000.00000 0 10002938.473 -4959589.648 22931914.660 10 0 56361 45900.00000 0 11452379.042 -2550314.849 22648073.479 10 0 56361 46800.00000 0 13034501.822 -301657.412 21924341.403 10 0 56361 47700.00000 0 14701089.180 1738051.902 20774832.659 10 0 56361 48600.00000 0 16396952.133 3530453.602 19221920.880 10 0 56361 49500.00000 0 18062164.458 5048506.896 17295802.125 10 0 56361 50400.00000 0 19634513.700 6277357.788 15033907.072 10 0 56361 51300.00000 0 21052066.869 7214693.227 12480173.697 10 0 56361 52200.00000 0 22255743.670 7870568.093 9684194.277 10 0 56361 53100.00000 0 23191789.639 8266713.757 6700253.202 10 0 56361 54000.00000 0 23814045.672 8435358.655 3586274.034 10 0 56361 54900.00000 0 24085918.783 8417611.726 402696.207 10 0 56361 55800.00000 0 23981971.349 8261477.791 -2788696.825 10 0 56361 56700.00000 0 23489062.036 8019589.419 -5925975.188 10 0 56361 57600.00000 0 22606990.287 7746751.667 -8948262.687 10 0 56361 58500.00000 0 21348617.060 7497403.811 -11796915.974 10 0 56361 59400.00000 0 19739456.360 7323105.626 -14416659.980 10 0 56361 60300.00000 0 17816754.174 7270154.624 -16756657.725 10 0 56361 61200.00000 0 15628092.798 7377435.050 -18771493.914 10 0 56361 62100.00000 0 13229578.197 7674589.610 -20422053.609 10 0 56361 63000.00000 0 10683685.228 8180591.376 -21676279.351 10 0 56361 63900.00000 0 8056849.784 8902776.481 -22509792.375 10 0 56361 64800.00000 0 5416907.127 9836379.026 -22906366.254 10 0 56361 65700.00000 0 2830482.051 10964588.633 -22858243.987 10 0 56361 66600.00000 0 360438.494 12259129.295 -22366292.365 10 0 56361 67500.00000 0 -1936506.313 13681336.455 -21439990.449 10 0 56361 68400.00000 0 -4011904.816 15183688.379 -20097251.955 10 0 56361 69300.00000 0 -5827351.613 16711728.748 -18364084.372 10 0 56361 70200.00000 0 -7355832.332 18206300.880 -16274090.729 10 0 56361 71100.00000 0 -8582593.348 19606000.628 -13867822.873 10 0 56361 72000.00000 0 -9505496.552 20849745.383 -11191998.157 10 0 56361 72900.00000 0 -10134845.050 21879351.401 -8298594.202 10 0 56361 73800.00000 0 -10492687.818 22642010.880 -5243838.965 10 0 56361 74700.00000 0 -10611633.323 23092564.005 -2087115.808 10 0 56361 75600.00000 0 -10533223.019 23195469.609 1110194.942 10 0 56361 76500.00000 0 -10305934.354 22926390.569 4285914.901 10 0 56361 77400.00000 0 -9982898.686 22273326.268 7378282.907 10 0 56361 78300.00000 0 -9619431.732 21237243.604 10327162.266 10 0 56361 79200.00000 0 -9270482.118 19832179.266 13075215.711 10 0 56361 80100.00000 0 -8988106.944 18084808.427 15569024.467 10 0 56361 81000.00000 0 -8819082.052 16033497.595 17760129.235 10 0 56361 81900.00000 0 -8802748.738 13726881.046 19605972.633 10 0 56361 82800.00000 0 -8969188.361 11222020.339 21070724.762 10 0 56361 83700.00000 0 -9337802.289 8582223.672 22125976.153 10 0 56361 84600.00000 0 -9916357.267 5874615.884 22751285.143 10 0 56361 85500.00000 0 -10700536.526 3167560.129 22934569.563 10 0 56362 0.00000 0 -11674015.614 528038.078 22672335.808 10 0 56362 900.00000 0 -12809060.110 -1980903.116 21969741.296 10 0 56362 1800.00000 0 -14067619.537 -4302531.813 20840489.787 10 0 56362 2700.00000 0 -15402872.880 -6388542.493 19306561.555 10 0 56362 3600.00000 0 -16761160.042 -8200810.320 17397784.066 10 0 56362 4500.00000 0 -18084219.095 -9712717.121 15151251.306 10 0 56362 5400.00000 0 -19311635.454 -10909995.482 12610602.989 10 0 56362 6300.00000 0 -20383400.522 -11791057.125 9825177.365 10 0 56362 7200.00000 0 -21242472.463 -12366793.333 6849053.954 10 0 56362 8100.00000 0 -21837231.667 -12659857.230 3740004.609 10 0 56362 9000.00000 0 -22123727.722 -12703459.411 558373.127 10 0 56362 9900.00000 0 -22067623.283 -12539728.631 -2634094.734 10 0 56362 10800.00000 0 -21645752.960 -12217707.628 -5775448.179 10 0 56362 11700.00000 0 -20847231.333 -11791069.248 -8804731.905 10 0 56362 12600.00000 0 -19674063.135 -11315649.808 -11663166.848 10 0 56362 13500.00000 0 -18141229.432 -10846904.137 -14295288.282 10 0 56362 14400.00000 0 -16276245.490 -10437389.901 -16650019.326 10 0 56362 15300.00000 0 -14118208.119 -10134387.484 -18681659.184 10 0 56362 16200.00000 0 -11716371.416 -9977755.823 -20350767.326 10 0 56362 17100.00000 0 -9128309.366 -9998114.675 -21624926.885 10 0 56362 18000.00000 0 -6417740.928 -10215430.011 -22479372.772 10 0 56362 18900.00000 0 -3652107.021 -10638062.367 -22897472.761 10 0 56362 19800.00000 0 -899999.042 -11262318.676 -22871052.384 10 0 56362 20700.00000 0 1771455.177 -12072527.070 -22400557.347 10 0 56362 21600.00000 0 4299140.467 -13041632.331 -21495050.157 10 0 56362 22500.00000 0 6626333.468 -14132287.948 -20172040.562 10 0 56362 23400.00000 0 8704813.637 -15298399.858 -18457152.522 10 0 56362 24300.00000 0 10496619.055 -16487057.895 -16383633.438 10 0 56362 25200.00000 0 11975374.452 -17640774.532 -13991714.367 10 0 56362 26100.00000 0 13127136.570 -18699937.204 -11327833.001 10 0 56362 27000.00000 0 13950722.087 -19605371.202 -8443733.932 10 0 56362 27900.00000 0 14457505.009 -20300905.049 -5395463.326 10 0 56362 28800.00000 0 14670692.675 -20735829.769 -2242277.605 10 0 56362 29700.00000 0 14624111.679 -20867147.644 954512.442 10 0 56362 30600.00000 0 14360555.772 -20661514.702 4132739.159 10 0 56362 31500.00000 0 13929766.456 -20096793.987 7230593.049 10 0 56362 32400.00000 0 13386132.627 -19163153.139 10187830.952 10 0 56362 33300.00000 0 12786207.539 -17863659.039 12946953.078 10 0 56362 34200.00000 0 12186149.038 -16214343.694 15454325.285 10 0 56362 35100.00000 0 11639192.122 -14243737.922 17661224.293 10 0 56362 36000.00000 0 11193261.247 -11991891.791 19524785.325 10 0 56362 36900.00000 0 10888823.687 -9508922.506 21008833.694 10 0 56362 37800.00000 0 10757074.714 -6853150.063 22084584.522 10 0 56362 38700.00000 0 10818531.154 -4088898.124 22731197.434 10 0 56362 39600.00000 0 11082092.440 -1284051.425 22936176.033 10 0 56362 40500.00000 0 11544608.461 1492529.120 22695605.008 10 0 56362 41400.00000 0 12190972.176 4173626.816 22014220.863 10 0 56362 42300.00000 0 12994732.853 6696216.874 20905315.307 10 0 56362 43200.00000 0 13919204.041 9003836.512 19390473.509 10 0 56362 44100.00000 0 14919019.655 11048680.097 17499152.392 10 0 56362 45000.00000 0 15942072.757 12793333.298 15268107.169 10 0 56362 45900.00000 0 16931755.633 14212075.430 12740677.103 10 0 56362 46800.00000 0 17829407.052 15291697.065 9965944.136 10 0 56362 47700.00000 0 18576863.816 16031800.098 6997780.577 10 0 56362 48600.00000 0 19119009.268 16444569.122 3893804.171 10 0 56362 49500.00000 0 19406211.416 16554025.000 714260.691 10 0 56362 50400.00000 0 19396547.872 16394793.098 -2479144.187 10 0 56362 51300.00000 0 19057723.658 16010439.026 -5624441.019 10 0 56362 52200.00000 0 18368600.789 15451442.759 -8660597.534 10 0 56362 53100.00000 0 17320274.760 14772897.066 -11528700.889 10 0 56362 54000.00000 0 15916652.049 14032027.723 -14173098.400 10 0 56362 54900.00000 0 14174503.590 13285640.205 -16542474.728 10 0 56362 55800.00000 0 12122991.046 12587600.560 -18590844.778 10 0 56362 56700.00000 0 9802684.700 11986456.529 -20278443.421 10 0 56362 57600.00000 0 7264112.744 11523298.977 -21572495.167 10 0 56362 58500.00000 0 4565901.374 11229953.509 -22447849.231 10 0 56362 59400.00000 0 1772581.821 11127578.322 -22887468.034 10 0 56362 60300.00000 0 -1047845.745 11225727.284 -22882759.891 10 0 56362 61200.00000 0 -3826491.328 11521917.885 -22433749.441 10 0 56362 62100.00000 0 -6496191.241 12001722.585 -21549082.353 10 0 56362 63000.00000 0 -8994053.661 12639380.275 -20245863.804 10 0 56362 63900.00000 0 -11263828.544 13398902.780 -18549333.273 10 0 56362 64800.00000 0 -13258004.123 14235630.497 -16492381.242 10 0 56362 65700.00000 0 -14939543.248 15098172.313 -14114916.404 10 0 56362 66600.00000 0 -16283187.558 15930648.483 -11463094.977 10 0 56362 67500.00000 0 -17276275.490 16675142.145 -8588426.529 10 0 56362 68400.00000 0 -17919040.290 17274255.955 -5546773.321 10 0 56362 69300.00000 0 -18224376.035 17673665.537 -2397262.645 10 0 56362 70200.00000 0 -18217082.113 17824561.244 798866.499 10 0 56362 71100.00000 0 -17932618.730 17685874.196 3979459.479 10 0 56362 72000.00000 0 -17415426.733 17226191.534 7082660.807 10 0 56362 72900.00000 0 -16716883.597 16425278.909 10048123.222 10 0 56362 73800.00000 0 -15892982.871 15275144.864 12818186.819 10 0 56362 74700.00000 0 -15001836.007 13780601.254 15339004.459 10 0 56362 75600.00000 0 -14101102.890 11959295.189 17561591.201 10 0 56362 76500.00000 0 -13245460.171 9841210.348 19442777.064 10 0 56362 77400.00000 0 -12484214.619 7467657.951 20946044.590 10 0 56362 78300.00000 0 -11859162.261 4889799.029 22042235.247 10 0 56362 79200.00000 0 -11402783.382 2166759.142 22710111.399 10 0 56362 80100.00000 0 -11136849.057 -636586.278 22936763.494 10 0 56362 81000.00000 0 -11071497.376 -3452064.345 22717855.200 10 0 56362 81900.00000 0 -11204817.623 -6210793.566 22057702.283 10 0 56362 82800.00000 0 -11522959.328 -8845802.157 20969184.161 10 0 56362 83700.00000 0 -12000761.060 -11294567.935 19473490.138 10 0 56362 84600.00000 0 -12602872.069 -13501375.215 17599705.385 10 0 56362 85500.00000 0 -13285319.286 -15419391.649 15384244.671 10 0 56363 0.00000 0 -13997453.480 -17012379.805 12870144.808 10 0 56363 900.00000 0 -14684192.468 -18255973.193 10106228.913 10 0 56363 1800.00000 0 -15288466.980 -19138465.123 7146159.481 10 0 56363 2700.00000 0 -15753765.574 -19661077.682 4047397.287 10 0 56363 3600.00000 0 -16026671.761 -19837701.978 870087.071 10 0 56363 4500.00000 0 -16059285.714 -19694120.600 -2324108.648 10 0 56363 5400.00000 0 -15811428.405 -19266746.450 -5473204.922 10 0 56363 6300.00000 0 -15252534.772 -18600931.608 -8516095.654 10 0 56363 7200.00000 0 -14363155.672 -17748918.037 -11393737.340 10 0 56363 8100.00000 0 -13136004.727 -16767516.843 -14050292.359 10 0 56363 9000.00000 0 -11576505.189 -15715613.987 -16434209.775 10 0 56363 9900.00000 0 -9702812.935 -14651607.510 -18499222.781 10 0 56363 10800.00000 0 -7545313.458 -13630883.964 -20205243.859 10 0 56363 11700.00000 0 -5145612.596 -12703439.929 -21519140.656 10 0 56363 12600.00000 0 -2555061.835 -11911748.303 -22415377.899 10 0 56363 13500.00000 0 167121.803 -11288958.694 -22876513.282 10 0 56363 14400.00000 0 2956064.477 -10857507.203 -22893537.949 10 0 56363 15300.00000 0 5743682.298 -10628193.864 -22466054.954 10 0 56363 16200.00000 0 8461265.774 -10599766.424 -21602292.118 10 0 56363 17100.00000 0 11042095.710 -10759028.068 -20318948.593 10 0 56363 18000.00000 0 13423982.638 -11081464.821 -18640877.533 10 0 56363 18900.00000 0 15551624.964 -11532366.508 -16600610.319 10 0 56363 19800.00000 0 17378688.188 -12068394.432 -14237730.757 10 0 56363 20700.00000 0 18869518.797 -12639529.918 -11598110.764 10 0 56363 21600.00000 0 20000421.602 -13191321.642 -8733021.784 10 0 56363 22500.00000 0 20760447.316 -13667336.710 -5698138.835 10 0 56363 23400.00000 0 21151657.615 -14011711.574 -2552456.585 10 0 56363 24300.00000 0 21188856.954 -14171694.296 642861.321 10 0 56363 25200.00000 0 20898802.945 -14100069.793 3825676.776 10 0 56363 26100.00000 0 20318929.159 -13757364.479 6934091.632 10 0 56363 27000.00000 0 19495634.993 -13113735.968 9907657.584 10 0 56363 27900.00000 0 18482215.546 -12150466.811 12688557.270 10 0 56363 28800.00000 0 17336519.695 -10860998.145 15222732.795 10 0 56363 29700.00000 0 16118435.921 -9251458.597 17460939.305 10 0 56363 30600.00000 0 14887312.501 -7340665.207 19359702.883 10 0 56363 31500.00000 0 13699421.180 -5159595.541 20882164.083 10 0 56363 32400.00000 0 12605571.241 -2750352.308 21998791.027 10 0 56363 33300.00000 0 11648974.207 -164663.082 22687948.682 10 0 56363 34200.00000 0 10863448.527 2538022.847 22936313.774 10 0 56363 35100.00000 0 10272039.044 5292761.839 22739127.977 10 0 56363 36000.00000 0 9886108.422 8031575.473 22100284.979 10 0 56363 36900.00000 0 9704937.793 10686040.680 21032250.230 10 0 56363 37800.00000 0 9715852.513 13189903.570 19555815.206 10 0 56363 38700.00000 0 9894866.867 15481609.150 17699691.112 10 0 56363 39600.00000 0 10207819.891 17506642.557 15499949.878 10 0 56363 40500.00000 0 10611953.909 19219585.315 12999323.186 10 0 56363 41400.00000 0 11057868.805 20585801.958 10246372.892 10 0 56363 42300.00000 0 11491769.334 21582687.531 7294548.811 10 0 56363 43200.00000 0 11857910.375 22200424.927 4201151.959 10 0 56363 44100.00000 0 12101136.710 22442221.308 1026223.265 10 0 56363 45000.00000 0 12169409.857 22324014.606 -2168620.624 10 0 56363 45900.00000 0 12016214.996 21873663.287 -5321381.830 10 0 56363 46800.00000 0 11602746.006 21129654.123 -8370882.796 10 0 56363 47700.00000 0 10899775.955 20139382.848 -11257951.453 10 0 56363 48600.00000 0 9889133.597 18957080.391 -13926567.040 10 0 56363 49500.00000 0 8564722.864 17641472.077 -16324944.486 10 0 56363 50400.00000 0 6933041.584 16253268.195 -18406536.439 10 0 56363 51300.00000 0 5013176.502 14852591.242 -20130933.862 10 0 56363 52200.00000 0 2836273.451 13496447.481 -21464648.148 10 0 56363 53100.00000 0 444503.467 12236348.593 -22381759.905 10 0 56363 54000.00000 0 -2110433.544 11116182.612 -22864422.230 10 0 56363 54900.00000 0 -4769206.830 10170422.957 -22903208.960 10 0 56363 55800.00000 0 -7467076.881 9422750.185 -22497301.134 10 0 56363 56700.00000 0 -10136350.637 8885143.877 -21654507.960 10 0 56363 57600.00000 0 -12708968.949 8557482.486 -20391121.438 10 0 56363 58500.00000 0 -15119119.654 8427667.812 -18731606.919 10 0 56363 59400.00000 0 -17305768.350 8472268.802 -16708134.874 10 0 56363 60300.00000 0 -19215002.031 8657657.575 -14359962.171 10 0 56363 61200.00000 0 -20802088.099 8941589.814 -11732674.196 10 0 56363 62100.00000 0 -22033162.946 9275162.781 -8877301.950 10 0 56363 63000.00000 0 -22886479.568 9605068.014 -5849330.877 10 0 56363 63900.00000 0 -23353161.886 9876043.092 -2707620.704 10 0 56363 64800.00000 0 -23437434.286 10033418.120 486742.528 10 0 56363 65700.00000 0 -23156316.940 10025648.304 3671639.463 10 0 56363 66600.00000 0 -22538800.073 9806724.448 6785131.462 10 0 56363 67500.00000 0 -21624532.513 9338358.210 9766671.332 10 0 56363 68400.00000 0 -20462080.395 8591848.543 12558286.369 10 0 56363 69300.00000 0 -19106830.132 7549549.249 15105709.976 10 0 56363 70200.00000 0 -17618624.677 6205874.668 17359439.347 10 0 56363 71100.00000 0 -16059233.168 4567799.979 19275698.428 10 0 56363 72000.00000 0 -14489760.874 2654834.226 20817287.362 10 0 56363 72900.00000 0 -12968108.446 498466.287 21954302.242 10 0 56363 73800.00000 0 -11546587.053 -1858893.842 22664711.623 10 0 56363 74700.00000 0 -10269789.095 -4365434.850 22934779.155 10 0 56363 75600.00000 0 -9172803.086 -6961862.348 22759324.792 10 0 56363 76500.00000 0 -8279846.593 -9583636.316 22141820.051 10 0 56363 77400.00000 0 -7603373.515 -12163435.250 21094315.944 10 0 56363 78300.00000 0 -7143691.900 -14633745.242 19637205.293 10 0 56363 79200.00000 0 -6889107.208 -16929467.040 17798824.151 10 0 56363 80100.00000 0 -6816583.853 -18990433.276 15614900.088 10 0 56363 81000.00000 0 -6892896.256 -20763731.856 13127857.901 10 0 56363 81900.00000 0 -7076220.063 -22205739.454 10385995.992 10 0 56363 82800.00000 0 -7318095.851 -23283780.969 7442549.266 10 0 56363 83700.00000 0 -7565681.919 -23977346.391 4354656.533 10 0 56363 84600.00000 0 -7764200.622 -24278814.935 1182252.336 10 0 56363 85500.00000 0 -7859474.564 -24193656.749 -2013095.213 99